VYA605 SCIR-SCIP

Flight info

Callsign VYA605
Flight time N/A
Altitude 38000
Route XONAT UL348 OSOGU/N0452F400 UL348 PUMPI DCT ASALA ASALA2C
Aircraft CL60/M-SADE3FGHIJ3J4J7P2RWXY/HB1D1

Departure

Time 2026-05-01 12:10
Airport Robinson Crusoe Airport (SCIR)

Arrival

Time N/A
Airport Mataveri International Airport (SCIP)
Time Latitude Longitude Altitude Speed Heading
2026-05-01 11:54 -33.66616 -78.93002 401 ft 0 kts 62°
2026-05-01 12:08 -33.66609 -78.92972 400 ft 12 kts 68°
2026-05-01 12:08 -33.66564 -78.92939 401 ft 12 kts 327°
2026-05-01 12:08 -33.66456 -78.93020 404 ft 19 kts 329°
2026-05-01 12:08 -33.66332 -78.93105 407 ft 21 kts 330°
2026-05-01 12:09 -33.66234 -78.93153 409 ft 6 kts 344°
2026-05-01 12:09 -33.66239 -78.93171 409 ft 6 kts 164°
2026-05-01 12:09 -33.66265 -78.93153 409 ft 31 kts 147°
2026-05-01 12:09 -33.66839 -78.92744 402 ft 150 kts 148°
2026-05-01 12:10 -33.67832 -78.92020 1212 ft 176 kts 147°
2026-05-01 12:10 -33.69978 -78.90372 3205 ft 189 kts 145°
2026-05-01 12:10 -33.71016 -78.89442 4228 ft 192 kts 145°
2026-05-01 12:11 -33.73425 -78.88819 6041 ft 191 kts 210°
2026-05-01 12:11 -33.74245 -78.90002 6974 ft 190 kts 248°
2026-05-01 12:11 -33.74560 -78.91612 7397 ft 214 kts 257°
2026-05-01 12:12 -33.74806 -78.93419 7555 ft 231 kts 258°
2026-05-01 12:12 -33.75071 -78.95394 7887 ft 249 kts 258°
2026-05-01 12:12 -33.75219 -78.97553 8400 ft 265 kts 274°
2026-05-01 12:12 -33.74564 -78.99613 9071 ft 276 kts 297°
2026-05-01 12:13 -33.73505 -79.01577 9787 ft 278 kts 298°
2026-05-01 12:13 -33.72470 -79.03500 10502 ft 279 kts 298°
2026-05-01 12:13 -33.71417 -79.05459 11159 ft 281 kts 298°
2026-05-01 12:13 -33.70347 -79.07449 11778 ft 283 kts 298°
2026-05-01 12:14 -33.69280 -79.09431 12393 ft 285 kts 298°
2026-05-01 12:14 -33.68214 -79.11411 12967 ft 286 kts 298°
2026-05-01 12:14 -33.67131 -79.13422 13520 ft 287 kts 298°
2026-05-01 12:14 -33.66043 -79.15442 14052 ft 288 kts 298°
2026-05-01 12:15 -33.64945 -79.17478 14550 ft 290 kts 298°
2026-05-01 12:15 -33.63851 -79.19507 15014 ft 291 kts 298°
2026-05-01 12:15 -33.62754 -79.21542 15411 ft 294 kts 298°
2026-05-01 12:15 -33.61636 -79.23614 15848 ft 294 kts 298°
2026-05-01 12:16 -33.60528 -79.25664 16260 ft 295 kts 298°
2026-05-01 12:16 -33.59420 -79.27715 16635 ft 296 kts 298°
2026-05-01 12:16 -33.58289 -79.29807 16995 ft 297 kts 298°
2026-05-01 12:16 -33.57169 -79.31878 17353 ft 297 kts 298°
2026-05-01 12:17 -33.56046 -79.33953 17640 ft 300 kts 298°
2026-05-01 12:17 -33.54904 -79.36063 17953 ft 300 kts 298°
2026-05-01 12:17 -33.53759 -79.38176 18234 ft 302 kts 298°
2026-05-01 12:17 -33.52619 -79.40280 18481 ft 304 kts 298°
2026-05-01 12:18 -33.51456 -79.42425 18778 ft 305 kts 298°
2026-05-01 12:18 -33.50309 -79.44536 19049 ft 305 kts 298°
2026-05-01 12:18 -33.49140 -79.46691 19237 ft 308 kts 298°
2026-05-01 12:18 -33.47977 -79.48834 19459 ft 309 kts 298°
2026-05-01 12:19 -33.46793 -79.51010 19679 ft 310 kts 298°
2026-05-01 12:19 -33.45622 -79.53165 19862 ft 312 kts 298°
2026-05-01 12:19 -33.44426 -79.55363 20061 ft 313 kts 298°
2026-05-01 12:19 -33.43245 -79.57531 20266 ft 314 kts 298°
2026-05-01 12:20 -33.42042 -79.59738 20461 ft 314 kts 298°
2026-05-01 12:20 -33.40854 -79.61919 20626 ft 316 kts 298°
2026-05-01 12:20 -33.39658 -79.64110 20791 ft 317 kts 298°
2026-05-01 12:20 -33.38444 -79.66335 20964 ft 318 kts 299°
2026-05-01 12:21 -33.37239 -79.68542 21123 ft 319 kts 299°
2026-05-01 12:21 -33.36012 -79.70789 21271 ft 320 kts 299°
2026-05-01 12:21 -33.34795 -79.73013 21419 ft 321 kts 299°
2026-05-01 12:21 -33.33577 -79.75241 21573 ft 322 kts 299°
2026-05-01 12:22 -33.32338 -79.77505 21700 ft 323 kts 299°
2026-05-01 12:22 -33.31110 -79.79746 21853 ft 324 kts 299°
2026-05-01 12:22 -33.29883 -79.81984 21993 ft 324 kts 299°
2026-05-01 12:22 -33.28636 -79.84257 22122 ft 325 kts 299°
2026-05-01 12:23 -33.27402 -79.86507 22250 ft 326 kts 299°
2026-05-01 12:23 -33.26167 -79.88756 22387 ft 326 kts 299°
2026-05-01 12:23 -33.24913 -79.91038 22517 ft 326 kts 299°
2026-05-01 12:23 -33.23676 -79.93289 22604 ft 327 kts 300°
2026-05-01 12:24 -33.22414 -79.95584 22711 ft 328 kts 300°
2026-05-01 12:24 -33.21172 -79.97840 22828 ft 328 kts 300°
2026-05-01 12:24 -33.20133 -80.00216 22944 ft 322 kts 285°
2026-05-01 12:24 -33.19759 -80.02867 22997 ft 321 kts 274°
2026-05-01 12:25 -33.19561 -80.05545 23143 ft 326 kts 274°
2026-05-01 12:25 -33.19138 -80.11010 24663 ft 334 kts 274°
2026-05-01 12:25 -33.18926 -80.13730 25554 ft 333 kts 274°
2026-05-01 12:26 -33.18711 -80.16499 26332 ft 335 kts 274°
2026-05-01 12:26 -33.18275 -80.22070 27723 ft 341 kts 274°
2026-05-01 12:26 -33.18056 -80.24861 28352 ft 344 kts 274°
2026-05-01 12:27 -33.17831 -80.27727 28952 ft 348 kts 274°
2026-05-01 12:27 -33.17373 -80.33510 30126 ft 353 kts 274°
2026-05-01 12:28 -33.16904 -80.39413 31256 ft 358 kts 274°
2026-05-01 12:28 -33.16667 -80.42378 31775 ft 360 kts 274°
2026-05-01 12:28 -33.16185 -80.48383 32638 ft 367 kts 274°
2026-05-01 12:29 -33.15940 -80.51419 33092 ft 368 kts 273°
2026-05-01 12:29 -33.15694 -80.54474 33518 ft 370 kts 274°
2026-05-01 12:29 -33.15195 -80.60610 34323 ft 374 kts 274°
2026-05-01 12:30 -33.14692 -80.66763 35368 ft 372 kts 274°
2026-05-01 12:30 -33.14438 -80.69846 35959 ft 368 kts 274°
2026-05-01 12:30 -33.14190 -80.72854 36538 ft 365 kts 274°
2026-05-01 12:31 -33.13941 -80.75867 37056 ft 362 kts 274°
2026-05-01 12:31 -33.13696 -80.78832 37499 ft 361 kts 275°
2026-05-01 12:31 -33.13449 -80.81792 37922 ft 359 kts 275°
2026-05-01 12:31 -33.13200 -80.84785 38289 ft 359 kts 275°
2026-05-01 12:32 -33.12953 -80.87736 38617 ft 359 kts 275°
2026-05-01 12:32 -33.12459 -80.93623 39272 ft 357 kts 275°
2026-05-01 12:32 -33.12213 -80.96547 39571 ft 356 kts 275°
2026-05-01 12:33 -33.11963 -80.99503 39891 ft 355 kts 275°
2026-05-01 12:33 -33.11716 -81.02409 40182 ft 354 kts 275°
2026-05-01 12:33 -33.11213 -81.08328 40199 ft 363 kts 275°
2026-05-01 12:34 -33.10697 -81.14362 40202 ft 372 kts 275°
2026-05-01 12:34 -33.10162 -81.20587 40200 ft 380 kts 275°
2026-05-01 12:35 -33.09617 -81.26887 40187 ft 387 kts 275°
2026-05-01 12:35 -33.09056 -81.33330 40189 ft 394 kts 275°
2026-05-01 12:36 -33.08485 -81.39859 40188 ft 398 kts 275°
2026-05-01 12:36 -33.07904 -81.46452 40189 ft 400 kts 275°
2026-05-01 12:37 -33.07318 -81.53069 40193 ft 402 kts 275°
2026-05-01 12:37 -33.06730 -81.59665 40196 ft 402 kts 275°
2026-05-01 12:38 -33.06136 -81.66297 40199 ft 403 kts 276°
2026-05-01 12:38 -33.05542 -81.72884 40195 ft 403 kts 276°
2026-05-01 12:39 -33.04937 -81.79548 40189 ft 402 kts 276°
2026-05-01 12:39 -33.04331 -81.86186 40193 ft 403 kts 276°
2026-05-01 12:40 -33.03725 -81.92792 40207 ft 403 kts 276°
2026-05-01 12:40 -33.03112 -81.99424 40217 ft 402 kts 276°
2026-05-01 12:41 -33.02496 -82.06059 40212 ft 402 kts 276°
2026-05-01 12:41 -33.01878 -82.12683 40218 ft 403 kts 276°
2026-05-01 12:42 -33.01255 -82.19318 40215 ft 404 kts 276°
2026-05-01 12:42 -33.00630 -82.25937 40211 ft 404 kts 276°
2026-05-01 12:43 -32.99999 -82.32581 40217 ft 404 kts 276°
2026-05-01 12:43 -32.99362 -82.39248 40219 ft 404 kts 276°
2026-05-01 12:44 -32.98725 -82.45872 40215 ft 404 kts 276°
2026-05-01 12:45 -32.97436 -82.59187 40215 ft 405 kts 276°
2026-05-01 12:45 -32.96785 -82.65857 40215 ft 406 kts 276°
2026-05-01 12:46 -32.96128 -82.72550 40215 ft 407 kts 276°
2026-05-01 12:46 -32.95470 -82.79208 40215 ft 407 kts 276°
2026-05-01 12:47 -32.94804 -82.85918 40220 ft 407 kts 276°
2026-05-01 12:47 -32.94139 -82.92584 40218 ft 407 kts 276°
2026-05-01 12:48 -32.93465 -82.99297 40216 ft 407 kts 276°
2026-05-01 12:48 -32.92789 -83.05992 40213 ft 408 kts 276°
2026-05-01 12:49 -32.92114 -83.12649 40202 ft 408 kts 276°
2026-05-01 12:49 -32.91430 -83.19356 40211 ft 407 kts 276°
2026-05-01 12:50 -32.90747 -83.26021 40210 ft 408 kts 276°
2026-05-01 12:50 -32.90057 -83.32722 40210 ft 409 kts 276°
2026-05-01 12:51 -32.89360 -83.39450 40212 ft 409 kts 276°
2026-05-01 12:52 -32.88316 -83.49461 40206 ft 409 kts 276°
2026-05-01 12:52 -32.87256 -83.59542 40202 ft 409 kts 276°
2026-05-01 12:53 -32.86185 -83.69659 40199 ft 410 kts 276°
2026-05-01 12:54 -32.85469 -83.76377 40199 ft 410 kts 276°
2026-05-01 12:54 -32.84387 -83.86462 40195 ft 410 kts 276°
2026-05-01 12:55 -32.83300 -83.96522 40196 ft 410 kts 276°
2026-05-01 12:56 -32.82565 -84.03273 40198 ft 411 kts 276°
2026-05-01 12:56 -32.81831 -84.09989 40198 ft 411 kts 276°
2026-05-01 12:57 -32.81091 -84.16724 40195 ft 411 kts 276°
2026-05-01 12:57 -32.79972 -84.26850 40195 ft 413 kts 276°
2026-05-01 12:58 -32.79216 -84.33647 40199 ft 414 kts 276°
2026-05-01 12:59 -32.78079 -84.43802 40197 ft 415 kts 276°
2026-05-01 12:59 -32.76928 -84.54010 40191 ft 415 kts 276°
2026-05-01 13:00 -32.75767 -84.64225 40193 ft 417 kts 276°
2026-05-01 13:01 -32.74598 -84.74447 40190 ft 418 kts 276°
2026-05-01 13:02 -32.73416 -84.84693 40193 ft 419 kts 276°
2026-05-01 13:07 -32.64515 -85.60239 40178 ft 422 kts 276°
2026-05-01 13:08 -32.63678 -85.67157 40180 ft 422 kts 276°
2026-05-01 13:08 -32.62846 -85.74007 40179 ft 422 kts 276°
2026-05-01 13:09 -32.62003 -85.80907 40175 ft 423 kts 276°
2026-05-01 13:09 -32.61152 -85.87845 40177 ft 423 kts 276°
2026-05-01 13:10 -32.60305 -85.94720 40176 ft 423 kts 276°
2026-05-01 13:10 -32.59451 -86.01610 40178 ft 423 kts 276°
2026-05-01 13:11 -32.58589 -86.08540 40178 ft 423 kts 276°
2026-05-01 13:11 -32.57732 -86.15401 40167 ft 423 kts 276°
2026-05-01 13:12 -32.56863 -86.22323 40170 ft 424 kts 276°
2026-05-01 13:12 -32.55995 -86.29202 40170 ft 424 kts 276°
2026-05-01 13:13 -32.55119 -86.36120 40176 ft 423 kts 276°
2026-05-01 13:13 -32.54239 -86.43031 40173 ft 423 kts 276°
2026-05-01 13:14 -32.53361 -86.49893 40154 ft 423 kts 276°
2026-05-01 13:14 -32.52474 -86.56803 40156 ft 423 kts 276°
2026-05-01 13:15 -32.51584 -86.63701 40167 ft 424 kts 276°
2026-05-01 13:15 -32.50695 -86.70567 40165 ft 424 kts 277°
2026-05-01 13:16 -32.49794 -86.77483 40160 ft 424 kts 277°
2026-05-01 13:16 -32.48896 -86.84353 40170 ft 424 kts 277°
2026-05-01 13:17 -32.47085 -86.98118 40157 ft 424 kts 277°
2026-05-01 13:18 -32.45708 -87.08503 40149 ft 425 kts 277°
2026-05-01 13:18 -32.44786 -87.15418 40163 ft 425 kts 277°
2026-05-01 13:19 -32.43863 -87.22315 40156 ft 425 kts 277°
2026-05-01 13:20 -32.42466 -87.32685 40149 ft 426 kts 277°
2026-05-01 13:20 -32.41532 -87.39587 40162 ft 426 kts 277°
2026-05-01 13:21 -32.40116 -87.49991 40156 ft 426 kts 277°
2026-05-01 13:21 -32.39172 -87.56892 40153 ft 427 kts 277°
2026-05-01 13:22 -32.38214 -87.63866 40149 ft 428 kts 276°
2026-05-01 13:22 -32.37259 -87.70784 40165 ft 428 kts 277°
2026-05-01 13:23 -32.36295 -87.77739 40152 ft 428 kts 277°
2026-05-01 13:23 -32.35332 -87.84661 40147 ft 429 kts 277°
2026-05-01 13:24 -32.34359 -87.91624 40154 ft 430 kts 277°
2026-05-01 13:25 -32.32889 -88.02084 40144 ft 430 kts 277°
2026-05-01 13:25 -32.31902 -88.09074 40164 ft 430 kts 277°
2026-05-01 13:26 -32.30917 -88.16020 40154 ft 430 kts 277°
2026-05-01 13:26 -32.29921 -88.23010 40150 ft 431 kts 277°
2026-05-01 13:27 -32.28926 -88.29974 40142 ft 430 kts 277°
2026-05-01 13:27 -32.27426 -88.40407 40141 ft 430 kts 277°
2026-05-01 13:28 -32.25913 -88.50868 40143 ft 431 kts 277°
2026-05-01 13:29 -32.23880 -88.64828 40133 ft 432 kts 277°
2026-05-01 13:31 -32.20798 -88.85773 40130 ft 432 kts 278°
2026-05-01 13:32 -32.18199 -89.03244 40126 ft 433 kts 278°
2026-05-01 13:33 -32.15577 -89.20695 40123 ft 433 kts 278°
2026-05-01 13:34 -32.13452 -89.34712 40128 ft 433 kts 278°
2026-05-01 13:35 -32.11851 -89.45203 40124 ft 433 kts 278°
2026-05-01 13:36 -32.10248 -89.55647 40113 ft 433 kts 278°
2026-05-01 13:36 -32.08621 -89.66180 40117 ft 434 kts 279°
2026-05-01 13:37 -32.07718 -89.72000 40109 ft 434 kts 279°
2026-05-01 13:37 -32.06445 -89.80180 40116 ft 435 kts 279°
2026-05-01 13:38 -32.04806 -89.90652 40111 ft 433 kts 279°
2026-05-01 13:39 -32.03701 -89.97678 40112 ft 433 kts 279°
2026-05-01 13:39 -32.02611 -90.04633 40105 ft 434 kts 279°
2026-05-01 13:40 -32.01514 -90.11648 40112 ft 434 kts 278°
2026-05-01 13:40 -32.00417 -90.18634 40106 ft 436 kts 278°
2026-05-01 13:41 -31.99315 -90.25623 40111 ft 436 kts 279°
2026-05-01 13:41 -31.98200 -90.32669 40109 ft 435 kts 279°
2026-05-01 13:42 -31.97092 -90.39645 40107 ft 435 kts 279°
2026-05-01 13:42 -31.95979 -90.46622 40107 ft 434 kts 279°
2026-05-01 13:43 -31.94856 -90.53635 40101 ft 433 kts 279°
2026-05-01 13:43 -31.93741 -90.60577 40100 ft 433 kts 279°
2026-05-01 13:44 -31.92614 -90.67570 40099 ft 434 kts 279°
2026-05-01 13:44 -31.91491 -90.74510 40098 ft 434 kts 279°
2026-05-01 13:45 -31.90353 -90.81517 40097 ft 434 kts 279°
2026-05-01 13:45 -31.89221 -90.88465 40098 ft 434 kts 279°
2026-05-01 13:46 -31.88082 -90.95430 40093 ft 435 kts 279°
2026-05-01 13:46 -31.86933 -91.02425 40096 ft 435 kts 280°
2026-05-01 13:47 -31.85782 -91.09416 40094 ft 434 kts 280°
2026-05-01 13:47 -31.84633 -91.16364 40093 ft 434 kts 279°
2026-05-01 13:48 -31.83471 -91.23367 40093 ft 433 kts 279°
2026-05-01 13:48 -31.82315 -91.30312 40093 ft 433 kts 279°
2026-05-01 13:49 -31.81158 -91.37231 40094 ft 433 kts 279°
2026-05-01 13:49 -31.79991 -91.44196 40095 ft 433 kts 280°
2026-05-01 13:50 -31.78824 -91.51131 40094 ft 433 kts 280°
2026-05-01 13:50 -31.77656 -91.58048 40095 ft 433 kts 280°
2026-05-01 13:51 -31.76476 -91.65009 40091 ft 433 kts 280°
2026-05-01 13:51 -31.75303 -91.71912 40094 ft 433 kts 280°
2026-05-01 13:52 -31.74117 -91.78863 40091 ft 432 kts 280°
2026-05-01 13:52 -31.72938 -91.85752 40092 ft 432 kts 280°
2026-05-01 13:53 -31.71747 -91.92686 40093 ft 432 kts 280°
2026-05-01 13:53 -31.69965 -92.03017 40092 ft 432 kts 280°
2026-05-01 13:54 -31.68763 -92.09959 40091 ft 432 kts 280°
2026-05-01 13:54 -31.67563 -92.16867 40087 ft 433 kts 280°
2026-05-01 13:55 -31.66354 -92.23801 40087 ft 433 kts 280°
2026-05-01 13:55 -31.65150 -92.30687 40093 ft 432 kts 280°
2026-05-01 13:56 -31.63934 -92.37612 40085 ft 432 kts 280°
2026-05-01 13:56 -31.62725 -92.44482 40087 ft 431 kts 280°
2026-05-01 13:57 -31.61714 -92.50205 40084 ft 431 kts 280°
2026-05-01 13:57 -31.60291 -92.58238 40084 ft 431 kts 280°
2026-05-01 13:58 -31.59065 -92.65133 40083 ft 431 kts 281°
2026-05-01 13:58 -31.57837 -92.72020 40084 ft 431 kts 281°
2026-05-01 13:59 -31.56606 -92.78899 40081 ft 431 kts 280°
2026-05-01 13:59 -31.55376 -92.85749 40090 ft 430 kts 281°
2026-05-01 14:00 -31.54133 -92.92654 40078 ft 430 kts 280°
2026-05-01 14:00 -31.52898 -92.99490 40081 ft 430 kts 280°
2026-05-01 14:01 -31.51653 -93.06358 40080 ft 431 kts 281°
2026-05-01 14:01 -31.50408 -93.13206 40082 ft 431 kts 280°
2026-05-01 14:02 -31.49150 -93.20105 40078 ft 431 kts 280°
2026-05-01 14:02 -31.47899 -93.26945 40086 ft 430 kts 280°
2026-05-01 14:03 -31.46639 -93.33807 40082 ft 430 kts 280°
2026-05-01 14:03 -31.45382 -93.40637 40081 ft 430 kts 280°
2026-05-01 14:04 -31.44122 -93.47459 40077 ft 430 kts 280°
2026-05-01 14:04 -31.43062 -93.53184 40081 ft 430 kts 280°
2026-05-01 14:05 -31.41573 -93.61202 40084 ft 431 kts 280°
2026-05-01 14:05 -31.40304 -93.68011 40080 ft 431 kts 280°
2026-05-01 14:06 -31.39019 -93.74885 40081 ft 430 kts 280°
2026-05-01 14:06 -31.37742 -93.81695 40083 ft 429 kts 281°
2026-05-01 14:07 -31.36460 -93.88512 40085 ft 429 kts 280°
2026-05-01 14:08 -31.34529 -93.98738 40079 ft 428 kts 280°
2026-05-01 14:08 -31.33242 -94.05532 40083 ft 429 kts 280°
2026-05-01 14:09 -31.31941 -94.12373 40082 ft 429 kts 280°
2026-05-01 14:09 -31.30649 -94.19149 40082 ft 430 kts 280°
2026-05-01 14:10 -31.29345 -94.25968 40080 ft 429 kts 280°
2026-05-01 14:10 -31.28042 -94.32759 40076 ft 428 kts 280°
2026-05-01 14:11 -31.26731 -94.39577 40074 ft 428 kts 280°
2026-05-01 14:11 -31.24773 -94.49719 40080 ft 428 kts 280°
2026-05-01 14:12 -31.23448 -94.56558 40077 ft 429 kts 280°
2026-05-01 14:12 -31.22129 -94.63343 40075 ft 430 kts 281°
2026-05-01 14:13 -31.21026 -94.69009 40081 ft 430 kts 281°
2026-05-01 14:13 -31.19470 -94.76968 40071 ft 429 kts 281°
2026-05-01 14:14 -31.18146 -94.83719 40074 ft 428 kts 281°
2026-05-01 14:14 -31.16811 -94.90505 40068 ft 428 kts 281°
2026-05-01 14:15 -31.15476 -94.97276 40067 ft 428 kts 281°
2026-05-01 14:15 -31.14114 -95.04093 40068 ft 429 kts 281°
2026-05-01 14:16 -31.12748 -95.10845 40073 ft 430 kts 281°
2026-05-01 14:16 -31.11377 -95.17608 40067 ft 430 kts 281°
2026-05-01 14:17 -31.09996 -95.24399 40068 ft 429 kts 281°
2026-05-01 14:17 -31.08610 -95.31195 40064 ft 429 kts 281°
2026-05-01 14:18 -31.07227 -95.37958 40073 ft 427 kts 281°
2026-05-01 14:18 -31.06079 -95.43556 40069 ft 426 kts 281°
2026-05-01 14:19 -31.04475 -95.51357 40074 ft 426 kts 281°
2026-05-01 14:19 -31.03085 -95.58098 40070 ft 426 kts 281°
2026-05-01 14:20 -31.01010 -95.68126 40069 ft 426 kts 281°
2026-05-01 14:21 -30.99614 -95.74854 40080 ft 426 kts 282°
2026-05-01 14:21 -30.98214 -95.81574 40068 ft 426 kts 282°
2026-05-01 14:22 -30.96122 -95.91592 40072 ft 426 kts 282°
2026-05-01 14:22 -30.94724 -95.98259 40078 ft 425 kts 282°
2026-05-01 14:23 -30.93314 -96.04967 40071 ft 425 kts 282°
2026-05-01 14:23 -30.91906 -96.11646 40063 ft 424 kts 281°
2026-05-01 14:24 -30.90503 -96.18287 40069 ft 424 kts 281°
2026-05-01 14:24 -30.89090 -96.24953 40062 ft 424 kts 281°
2026-05-01 14:25 -30.87671 -96.31635 40061 ft 424 kts 281°
2026-05-01 14:25 -30.86257 -96.38272 40065 ft 424 kts 281°
2026-05-01 14:26 -30.84120 -96.48274 40064 ft 425 kts 281°
2026-05-01 14:27 -30.82691 -96.54934 40068 ft 426 kts 281°
2026-05-01 14:27 -30.81246 -96.61657 40065 ft 427 kts 281°
2026-05-01 14:28 -30.79082 -96.71687 40065 ft 426 kts 282°
2026-05-01 14:28 -30.77634 -96.78375 40068 ft 426 kts 282°
2026-05-01 14:29 -30.76187 -96.85046 40062 ft 426 kts 282°
2026-05-01 14:30 -30.73271 -96.98423 40059 ft 426 kts 282°
2026-05-01 14:31 -30.71086 -97.08404 40057 ft 425 kts 282°
2026-05-01 14:31 -30.69619 -97.15084 40062 ft 426 kts 282°
2026-05-01 14:32 -30.68153 -97.21738 40056 ft 427 kts 281°
2026-05-01 14:32 -30.66684 -97.28392 40059 ft 426 kts 282°
2026-05-01 14:33 -30.65209 -97.35051 40058 ft 426 kts 282°
2026-05-01 14:33 -30.63731 -97.41706 40056 ft 425 kts 282°
2026-05-01 14:34 -30.62294 -97.48161 40058 ft 423 kts 282°
2026-05-01 14:34 -30.60816 -97.54787 40066 ft 423 kts 281°
2026-05-01 14:35 -30.59343 -97.61369 40061 ft 423 kts 281°
2026-05-01 14:35 -30.57854 -97.68007 40057 ft 424 kts 282°
2026-05-01 14:36 -30.56370 -97.74604 40059 ft 424 kts 282°
2026-05-01 14:36 -30.54880 -97.81211 40062 ft 423 kts 282°
2026-05-01 14:37 -30.53388 -97.87814 40062 ft 423 kts 282°
2026-05-01 14:37 -30.51889 -97.94424 40061 ft 423 kts 282°
2026-05-01 14:38 -30.50392 -98.01013 40061 ft 422 kts 282°
2026-05-01 14:38 -30.48899 -98.07567 40060 ft 422 kts 282°
2026-05-01 14:39 -30.47398 -98.14136 40059 ft 421 kts 282°
2026-05-01 14:39 -30.45888 -98.20729 40057 ft 421 kts 281°
2026-05-01 14:40 -30.44388 -98.27268 40058 ft 422 kts 282°
2026-05-01 14:40 -30.42878 -98.33829 40062 ft 423 kts 282°
2026-05-01 14:41 -30.41352 -98.40440 40057 ft 423 kts 282°
2026-05-01 14:41 -30.39834 -98.47004 40063 ft 422 kts 282°
2026-05-01 14:42 -30.38315 -98.53557 40054 ft 423 kts 282°
2026-05-01 14:42 -30.36783 -98.60147 40066 ft 423 kts 282°
2026-05-01 14:43 -30.35254 -98.66707 40060 ft 423 kts 282°
2026-05-01 14:43 -30.33722 -98.73265 40061 ft 424 kts 282°
2026-05-01 14:44 -30.32187 -98.79821 40056 ft 424 kts 282°
2026-05-01 14:44 -30.29867 -98.89696 40057 ft 423 kts 282°
2026-05-01 14:45 -30.27545 -98.99541 40056 ft 423 kts 282°
2026-05-01 14:46 -30.26002 -99.06064 40065 ft 423 kts 282°
2026-05-01 14:46 -30.23664 -99.15919 40050 ft 423 kts 282°
2026-05-01 14:47 -30.22113 -99.22439 40059 ft 423 kts 282°
2026-05-01 14:48 -30.19758 -99.32303 40059 ft 424 kts 282°
2026-05-01 14:48 -30.17400 -99.42145 40055 ft 425 kts 282°
2026-05-01 14:49 -30.14237 -99.55288 40049 ft 423 kts 282°
2026-05-01 14:50 -30.11072 -99.68380 40052 ft 424 kts 282°
2026-05-01 14:51 -30.08676 -99.78249 40049 ft 424 kts 282°
2026-05-01 14:52 -30.06292 -99.88032 40051 ft 424 kts 282°
2026-05-01 14:53 -30.03879 -99.97900 40060 ft 425 kts 282°
2026-05-01 14:53 -30.02276 -100.04463 40044 ft 426 kts 282°
2026-05-01 14:54 -30.00669 -100.11040 40049 ft 425 kts 282°
2026-05-01 14:54 -29.99064 -100.17598 40049 ft 425 kts 282°
2026-05-01 14:55 -29.97454 -100.24157 40041 ft 425 kts 282°
2026-05-01 14:55 -29.95842 -100.30713 40038 ft 425 kts 282°
2026-05-01 14:56 -29.94229 -100.37255 40044 ft 425 kts 282°
2026-05-01 14:56 -29.92612 -100.43799 40047 ft 426 kts 282°
2026-05-01 14:57 -29.90989 -100.50349 40045 ft 425 kts 282°
2026-05-01 14:57 -29.88533 -100.60238 40047 ft 426 kts 282°
2026-05-01 14:58 -29.86907 -100.66763 40045 ft 426 kts 282°
2026-05-01 14:58 -29.85262 -100.73350 40037 ft 427 kts 282°
2026-05-01 14:59 -29.83625 -100.79890 40038 ft 426 kts 282°
2026-05-01 14:59 -29.81979 -100.86446 40043 ft 426 kts 282°
2026-05-01 15:00 -29.79509 -100.96261 40044 ft 427 kts 282°
2026-05-01 15:01 -29.77849 -101.02840 40036 ft 427 kts 282°
2026-05-01 15:01 -29.76188 -101.09405 40040 ft 427 kts 282°
2026-05-01 15:02 -29.74527 -101.15956 40055 ft 427 kts 281°
2026-05-01 15:02 -29.72855 -101.22540 40056 ft 429 kts 282°
2026-05-01 15:03 -29.71176 -101.29131 40063 ft 429 kts 281°
2026-05-01 15:03 -29.69494 -101.35720 40055 ft 429 kts 281°
2026-05-01 15:04 -29.67810 -101.42300 40056 ft 429 kts 281°
2026-05-01 15:04 -29.66119 -101.48890 40061 ft 429 kts 281°
2026-05-01 15:05 -29.64431 -101.55461 40059 ft 430 kts 281°
2026-05-01 15:05 -29.62734 -101.62046 40064 ft 431 kts 281°
2026-05-01 15:06 -29.61024 -101.68671 40058 ft 431 kts 281°
2026-05-01 15:06 -29.59316 -101.75271 40045 ft 433 kts 281°
2026-05-01 15:07 -29.57598 -101.81893 40047 ft 434 kts 281°
2026-05-01 15:07 -29.55873 -101.88527 40053 ft 435 kts 281°
2026-05-01 15:08 -29.54134 -101.95203 40046 ft 435 kts 281°
2026-05-01 15:08 -29.52394 -102.01865 40047 ft 436 kts 281°
2026-05-01 15:09 -29.50651 -102.08525 40044 ft 437 kts 281°
2026-05-01 15:09 -29.48902 -102.15193 40040 ft 437 kts 281°
2026-05-01 15:10 -29.47151 -102.21851 40042 ft 437 kts 281°
2026-05-01 15:10 -29.44513 -102.31857 40040 ft 438 kts 281°
2026-05-01 15:11 -29.41858 -102.41895 40040 ft 439 kts 281°
2026-05-01 15:12 -29.40070 -102.48634 40040 ft 440 kts 281°
2026-05-01 15:12 -29.37399 -102.58675 40053 ft 439 kts 281°
2026-05-01 15:14 -29.32926 -102.75416 40040 ft 440 kts 282°
2026-05-01 15:14 -29.30229 -102.85462 40038 ft 441 kts 282°
2026-05-01 15:15 -29.26606 -102.98914 40039 ft 443 kts 282°
2026-05-01 15:16 -29.22959 -103.12389 40044 ft 443 kts 282°
2026-05-01 15:18 -29.18395 -103.29171 40049 ft 442 kts 282°
2026-05-01 15:19 -29.14715 -103.42636 40048 ft 442 kts 282°
2026-05-01 15:19 -29.11962 -103.52675 40048 ft 443 kts 281°
2026-05-01 15:20 -29.09172 -103.62814 40052 ft 444 kts 281°
2026-05-01 15:21 -29.07312 -103.69554 40047 ft 445 kts 282°
2026-05-01 15:21 -29.05452 -103.76279 40052 ft 445 kts 282°
2026-05-01 15:22 -29.02657 -103.86359 40048 ft 444 kts 282°
2026-05-01 15:22 -29.00792 -103.93069 40055 ft 444 kts 281°
2026-05-01 15:23 -28.98922 -103.99781 40053 ft 444 kts 282°
2026-05-01 15:23 -28.97048 -104.06490 40050 ft 444 kts 282°
2026-05-01 15:24 -28.95166 -104.13219 40047 ft 445 kts 282°
2026-05-01 15:24 -28.93271 -104.19978 40054 ft 445 kts 282°
2026-05-01 15:25 -28.91388 -104.26679 40062 ft 446 kts 282°
2026-05-01 15:25 -28.89489 -104.33427 40057 ft 446 kts 282°
2026-05-01 15:26 -28.87598 -104.40127 40039 ft 446 kts 282°
2026-05-01 15:26 -28.85691 -104.46872 40064 ft 446 kts 282°
2026-05-01 15:27 -28.83782 -104.53611 40060 ft 447 kts 282°
2026-05-01 15:28 -28.80909 -104.63726 40063 ft 446 kts 282°
2026-05-01 15:28 -28.78989 -104.70467 40060 ft 447 kts 282°
2026-05-01 15:29 -28.76103 -104.80572 40057 ft 447 kts 282°
2026-05-01 15:30 -28.72560 -104.92939 40064 ft 448 kts 282°
2026-05-01 15:31 -28.66381 -105.14391 40065 ft 449 kts 282°
2026-05-01 15:32 -28.62472 -105.27889 40064 ft 449 kts 282°
2026-05-01 15:34 -28.56588 -105.48104 40070 ft 450 kts 282°